KC9VAF Weather Reports


time (UTC)temp
C
wind
direction
speed
KPH
gust
KPH
rain 1hr
cm
rain 24hr
cm
rain mn
cm
humidity
%
barometer
mb
20260503232347 20 241 6.4 8.0 0.00 0.00 0.00 44 1005.2
20260503231845 20 70 1.6 1.6 0.00 0.00 0.00 45 1005.2
20260503231342 20 120 4.8 9.7 0.00 0.00 0.00 44 1005.2
20260503230838 20 236 4.8 8.0 0.00 0.00 0.00 43 1005.4
20260503230335 20 337 4.8 4.8 0.00 0.00 0.00 44 1005.4
20260503225833 20 62 4.8 9.7 0.00 0.00 0.00 43 1005.3
20260503225328 20 208 4.8 9.7 0.00 0.00 0.00 44 1005.3
20260503224825 20 305 6.4 9.7 0.00 0.00 0.00 44 1005.5
20260503224322 20 145 3.2 3.2 0.00 0.00 0.00 43 1005.3
20260503223820 20 241 6.4 9.7 0.00 0.00 0.00 43 1005.5
20260503223317 20 314 3.2 3.2 0.00 0.00 0.00 45 1005.4
20260503222813 20 259 9.7 16.1 0.00 0.00 0.00 43 1005.6
20260503222312 20 260 8.0 14.5 0.00 0.00 0.00 44 1005.6
20260503221809 20 279 9.7 14.5 0.00 0.00 0.00 44 1005.7
20260503221308 20 233 8.0 12.9 0.00 0.00 0.00 44 1005.8
20260503220803 20 201 4.8 9.7 0.00 0.00 0.00 45 1005.6
20260503220300 20 201 8.0 24.1 0.00 0.00 0.00 44 1005.8
20260503215757 20 211 12.9 17.7 0.00 0.00 0.00 44 1005.5
20260503215254 20 253 9.7 14.5 0.00 0.00 0.00 44 1005.7
20260503214752 19 296 8.0 11.3 0.00 0.00 0.00 44 1005.9
20260503214249 19 120 9.7 14.5 0.00 0.00 0.00 44 1006.0
20260503213747 20 250 12.9 14.5 0.00 0.00 0.00 43 1006.0
20260503213244 20 162 8.0 9.7 0.00 0.00 0.00 43 1006.0
20260503212740 20 212 9.7 11.3 0.00 0.00 0.00 43 1006.1
20260503212238 20 114 4.8 4.8 0.00 0.00 0.00 44 1005.7
20260503211736 20 226 8.0 12.9 0.00 0.00 0.00 43 1006.1
20260503211232 20 304 9.7 11.3 0.00 0.00 0.00 45 1005.9
20260503210727 19 198 8.0 11.3 0.00 0.00 0.00 45 1006.3
20260503210225 19 234 9.7 12.9 0.00 0.00 0.00 44 1006.3
20260503205720 18 139 8.0 12.9 0.00 0.00 0.00 48 1006.3
20260503205216 18 236 3.2 3.2 0.00 0.00 0.00 49 1006.4
20260503204713 19 210 14.5 16.1 0.00 0.00 0.00 47 1006.3
20260503204211 18 173 6.4 9.7 0.00 0.00 0.00 50 1006.3
20260503203708 18 163 11.3 14.5 0.00 0.00 0.00 50 1006.7
20260503203205 18 251 14.5 17.7 0.00 0.00 0.00 49 1007.1
20260503202703 18 247 11.3 14.5 0.00 0.00 0.00 49 1006.8
20260503202200 18 161 3.2 3.2 0.00 0.00 0.00 51 1007.0
20260503201658 17 357 11.3 25.7 0.00 0.00 0.00 52 1007.3
20260503201155 17 170 8.0 11.3 0.00 0.00 0.00 50 1007.5
20260503200651 17 216 12.9 29.0 0.00 0.00 0.00 50 1007.5
20260503200148 17 195 6.4 8.0 0.00 0.00 0.00 49 1007.4
20260503195645 18 323 11.3 12.9 0.00 0.00 0.00 47 1007.6
20260503195142 18 26 8.0 16.1 0.00 0.00 0.00 47 1007.5
20260503194639 18 186 8.0 11.3 0.00 0.00 0.00 46 1007.7
20260503194134 18 0 11.3 17.7 0.00 0.00 0.00 46 1007.6
20260503193631 18 158 9.7 17.7 0.00 0.00 0.00 44 1007.6
20260503193127 18 352 11.3 16.1 0.00 0.00 0.00 44 1007.7
20260503192622 18 290 12.9 17.7 0.00 0.00 0.00 45 1007.6
20260503192118 18 229 6.4 9.7 0.00 0.00 0.00 44 1007.7
20260503191615 18 186 16.1 25.7 0.00 0.00 0.00 44 1007.7
20260503191112 18 206 6.4 9.7 0.00 0.00 0.00 47 1007.7
20260503190609 18 251 4.8 8.0 0.00 0.00 0.00 45 1007.9
20260503190106 18 178 12.9 22.5 0.00 0.00 0.00 44 1007.9
20260503185603 18 158 12.9 17.7 0.00 0.00 0.00 43 1007.8
20260503185103 18 201 4.8 4.8 0.00 0.00 0.00 46 1007.8
20260503184558 17 130 16.1 20.9 0.00 0.00 0.00 43 1008.0
20260503184055 18 140 8.0 9.7 0.00 0.00 0.00 46 1008.2
20260503183552 17 253 8.0 12.9 0.00 0.00 0.00 46 1008.2
20260503183049 17 117 6.4 9.7 0.00 0.00 0.00 47 1008.2
20260503182547 17 252 6.4 9.7 0.00 0.00 0.00 49 1008.5
20260503182045 17 160 11.3 20.9 0.00 0.00 0.00 52 1008.4
20260503181542 16 324 8.0 11.3 0.00 0.00 0.00 52 1008.5
20260503181038 16 204 11.3 12.9 0.00 0.00 0.00 53 1008.8
20260503180535 17 207 9.7 16.1 0.00 0.00 0.00 53 1008.7
20260503180033 16 194 6.4 11.3 0.00 0.00 0.00 54 1008.9
20260503175530 16 253 8.0 14.5 0.00 0.00 0.00 55 1009.3
20260503175027 16 224 4.8 4.8 0.00 0.00 0.00 57 1009.2
20260503174524 16 198 11.3 14.5 0.00 0.00 0.00 56 1009.3
20260503174020 15 232 9.7 11.3 0.00 0.00 0.00 56 1009.3
20260503173516 15 142 11.3 14.5 0.00 0.00 0.00 57 1009.3
20260503173012 14 131 4.8 8.0 0.00 0.00 0.00 58 1009.7
20260503172510 14 74 6.4 9.7 0.00 0.00 0.00 59 1009.6
20260503172007 13 139 8.0 11.3 0.00 0.00 0.00 60 1009.7
20260503171503 13 157 14.5 25.7 0.00 0.00 0.00 59 1009.8
20260503171001 14 188 9.7 14.5 0.00 0.00 0.00 60 1009.9
20260503170457 13 68 3.2 4.8 0.00 0.00 0.00 64 1010.1
20260503150849 15 205 11.3 16.1 0.00 0.00 0.00 55 1011.4
20260503150345 15 247 8.0 12.9 0.00 0.00 0.00 54 1011.3
20260503140309 13 183 11.3 16.1 0.00 0.00 0.00 55 1011.9
20260503131239 11 224 9.7 16.1 0.00 0.00 0.00 58 1012.4
20260503130737 11 234 6.4 9.7 0.00 0.00 0.00 58 1012.1
20260503130234 11 216 6.4 8.0 0.00 0.00 0.00 58 1012.3
20260503120200 9 62 6.4 9.7 0.00 0.00 0.00 59 1012.4
20260503110627 8 143 6.4 12.9 0.00 0.00 0.00 58 1012.3
20260503110124 8 203 6.4 8.0 0.00 0.00 0.00 58 1012.2
20260503081440 8 118 1.6 1.6 0.00 0.00 0.00 59 1013.6
20260503080937 8 242 3.2 3.2 0.00 0.00 0.00 60 1013.5
20260503080433 8 139 1.6 3.2 0.00 0.00 0.00 60 1013.6
20260503072910 7 159 1.6 1.6 0.00 0.00 0.00 62 1013.5
20260503072408 7 296 3.2 4.8 0.00 0.00 0.00 64 1013.6
20260503071904 6 105 1.6 3.2 0.00 0.00 0.00 64 1013.7
20260503071402 6 94 0.0 1.6 0.00 0.00 0.00 66 1013.6
20260503070857 6 86 1.6 1.6 0.00 0.00 0.00 67 1013.8
20260503070355 6 93 0.0 1.6 0.00 0.00 0.00 68 1013.9
20260503060320 5 108 0.0 1.6 0.00 0.00 0.00 72 1014.2
20260503054808 5 101 1.6 1.6 0.00 0.00 0.00 75 1014.5
20260503054304 5 93 0.0 0.0 0.00 0.00 0.00 75 1014.5
20260503053802 4 94 0.0 1.6 0.00 0.00 0.00 76 1014.5
20260503053300 4 94 0.0 0.0 0.00 0.00 0.00 77 1014.5
20260503052756 4 92 0.0 0.0 0.00 0.00 0.00 78 1014.4
20260503052254 4 96 0.0 0.0 0.00 0.00 0.00 79 1014.5
20260503051749 4 93 0.0 0.0 0.00 0.00 0.00 79 1014.6
20260503051246 3 95 1.6 1.6 0.00 0.00 0.00 80 1014.4
20260503050743 3 92 0.0 0.0 0.00 0.00 0.00 82 1014.9
20260503050239 3 89 0.0 0.0 0.00 0.00 0.00 82 1014.7
20260503045737 3 93 0.0 1.6 0.00 0.00 0.00 82 1014.8
20260503045234 3 94 0.0 0.0 0.00 0.00 0.00 82 1014.8
20260503044730 3 99 1.6 1.6 0.00 0.00 0.00 83 1014.8
20260503044228 3 88 0.0 0.0 0.00 0.00 0.00 83 1014.8
20260503043725 3 108 1.6 1.6 0.00 0.00 0.00 83 1014.6
20260503043222 3 90 0.0 0.0 0.00 0.00 0.00 83 1014.7
20260503042718 3 85 0.0 0.0 0.00 0.00 0.00 84 1014.9
20260503042215 3 93 0.0 0.0 0.00 0.00 0.00 84 1014.8
20260503041710 3 85 0.0 0.0 0.00 0.00 0.00 83 1015.0
20260503041209 3 94 0.0 0.0 0.00 0.00 0.00 83 1014.8
20260503040706 4 97 0.0 0.0 0.00 0.00 0.00 83 1014.8
20260503040203 4 90 0.0 0.0 0.00 0.00 0.00 83 1015.1
20260503035700 4 93 0.0 0.0 0.00 0.00 0.00 83 1015.1
20260503035157 4 85 0.0 0.0 0.00 0.00 0.00 82 1015.2
20260503034655 4 93 0.0 0.0 0.00 0.00 0.00 82 1015.2
20260503034151 4 88 0.0 1.6 0.00 0.00 0.00 81 1015.2
20260503033649 5 92 0.0 0.0 0.00 0.00 0.00 80 1015.2
20260503033146 5 93 0.0 0.0 0.00 0.00 0.00 80 1015.2
20260503032644 5 99 1.6 1.6 0.00 0.00 0.00 80 1015.3
20260503032143 5 90 1.6 1.6 0.00 0.00 0.00 80 1015.4
20260503031639 5 101 1.6 1.6 0.00 0.00 0.00 79 1015.6
20260503031137 5 97 0.0 1.6 0.00 0.00 0.00 79 1015.6
20260503030633 5 111 1.6 1.6 0.00 0.00 0.00 79 1015.3
20260503030130 5 99 1.6 3.2 0.00 0.00 0.00 79 1015.6
20260503025627 5 99 1.6 1.6 0.00 0.00 0.00 78 1015.4
20260503025125 5 91 1.6 1.6 0.00 0.00 0.00 77 1015.9
20260503024621 5 116 1.6 1.6 0.00 0.00 0.00 76 1015.8
20260503024118 5 115 4.8 4.8 0.00 0.00 0.00 77 1015.8
20260503023615 5 105 1.6 1.6 0.00 0.00 0.00 76 1015.7
20260503023113 5 99 1.6 1.6 0.00 0.00 0.00 76 1015.7
20260503022608 5 126 3.2 3.2 0.00 0.00 0.00 76 1015.6
20260503022103 5 95 0.0 1.6 0.00 0.00 0.00 76 1015.6
20260503021600 5 92 1.6 1.6 0.00 0.00 0.00 75 1015.6
20260503021057 5 110 1.6 3.2 0.00 0.00 0.00 76 1015.7
20260503020554 5 83 0.0 1.6 0.00 0.00 0.00 75 1015.7
20260503020051 5 119 1.6 3.2 0.00 0.00 0.00 75 1015.6
20260503015547 6 93 0.0 1.6 0.00 0.00 0.00 74 1015.7
20260503015045 6 129 1.6 1.6 0.00 0.00 0.00 72 1015.7
20260503014540 6 140 1.6 1.6 0.00 0.00 0.00 72 1015.7
20260503014039 6 114 1.6 1.6 0.00 0.00 0.00 72 1015.3
20260503013535 6 95 1.6 1.6 0.00 0.00 0.00 72 1015.4
20260503013033 6 115 3.2 3.2 0.00 0.00 0.00 71 1015.7
20260503012531 6 86 0.0 0.0 0.00 0.00 0.00 70 1015.4
20260503012027 6 96 1.6 3.2 0.00 0.00 0.00 69 1015.4
20260503011523 6 74 4.8 4.8 0.00 0.00 0.00 68 1015.4
20260503011021 6 113 0.0 0.0 0.00 0.00 0.00 68 1015.3
20260503010517 7 95 1.6 1.6 0.00 0.00 0.00 67 1015.7
20260503010015 7 154 4.8 4.8 0.00 0.00 0.00 66 1015.6
20260503005511 7 123 4.8 8.0 0.00 0.00 0.00 66 1015.3
20260503005009 7 124 3.2 3.2 0.00 0.00 0.00 65 1015.6
20260503004504 7 87 0.0 1.6 0.00 0.00 0.00 65 1015.4
20260503004003 7 104 1.6 1.6 0.00 0.00 0.00 64 1015.7
20260503003459 7 140 1.6 1.6 0.00 0.00 0.00 63 1015.7
20260503002956 8 175 3.2 4.8 0.00 0.00 0.00 63 1015.8
20260503002453 8 98 3.2 4.8 0.00 0.00 0.00 61 1015.7
20260503001949 8 124 4.8 4.8 0.00 0.00 0.00 61 1015.7
20260503001446 8 121 1.6 1.6 0.00 0.00 0.00 60 1015.9
20260503000944 8 82 1.6 3.2 0.00 0.00 0.00 59 1015.8
20260503000441 8 174 3.2 3.2 0.00 0.00 0.00 58 1015.8
20260502235938 8 119 4.8 4.8 0.00 0.00 0.00 58 1016.1
20260502235435 8 100 0.0 1.6 0.00 0.00 0.00 57 1015.8
20260502234933 9 135 3.2 3.2 0.00 0.00 0.00 56 1016.0
20260502234429 10 105 1.6 1.6 0.00 0.00 0.00 55 1016.0
20260502233926 10 102 3.2 3.2 0.00 0.00 0.00 54 1015.9
20260502233421 10 129 1.6 1.6 0.00 0.00 0.00 54 1016.3
20260502232919 10 92 1.6 3.2 0.00 0.00 0.00 53 1016.3